Weather History for KMCW - February, 2014

Change the Weather History Date:

Tuesday, February 18, 2014

  Actual Average Record
Temperature  
Mean Temperature 30 °F 22 °F  
Max Temperature 40 °F 30 °F 64 °F (1981)
Min Temperature 20 °F 13 °F -20 °F (2006)
Degree Days  
Heating Degree Days 35 43  
Month to date heating degree days 1027 828  
Since 1 July heating degree days 5997 5439  
Cooling Degree Days 0 0  
Month to date cooling degree days 0 0  
Year to date cooling degree days 0 0  
Moisture  
Dew Point 26 °F    
Average Humidity 78    
Maximum Humidity 92    
Minimum Humidity 64    
Precipitation  
Precipitation 0.01 in 0.04 in 1.35 in (1971)
Month to date precipitation 0.39 0.59  
Year to date precipitation 1.22 1.41  
Snow  
Snow 0.00 in 0.20 in 9.00 in (1961)
Month to date snowfall 11.3 5.3  
Since 1 July snowfall 36.9 30.1  
Snow Depth 18.00 in    
Sea Level Pressure  
Sea Level Pressure 29.70 in    
Wind  
Wind Speed 11 mph (WSW)    
Max Wind Speed 24 mph    
Max Gust Speed 28 mph    
Visibility 10 miles    
Events Rain    
T = Trace of Precipitation, MM = Missing Value Source: NWS Daily Summary

Daily Weather History Graph

Daily Weather History Graph

Search for Another Location

Airport or City:

Trip Planner

Search our weather history database for the weather conditions in past years. The results will help you decide how hot, cold, wet, or windy it might be!

Date:

Astronomy

Feb. 18, 2014 Rise Set
Actual Time 7:06 AM CST 5:48 PM CST
Civil Twilight 6:37 AM CST 6:17 PM CST
Nautical Twilight 6:04 AM CST 6:50 PM CST
Astronomical Twilight 5:31 AM CST 7:23 PM CST
Moon 9:50 PM CST (2/18) 8:32 AM CST (2/18)
Length of Visible Light 11h 39m
Length of Day
10h 41m
Waning Gibbous, 87% of the Moon is Illuminated
Feb 18
Waning Gibbous
Feb 22
Last Quarter
Mar 1
New
Mar 8
First Quarter
Mar 16
Full

Hourly Weather History & Observations

Time (CST) Temp. Windchill Dew Point Humidity Pressure Visibility Wind Dir Wind Speed Gust Speed Precip Events Conditions
12:53 AM 23.0 °F 14.7 °F 19.9 °F 88% 29.84 in 10.0 mi South 6.9 mph - N/A   Clear
1:53 AM 21.0 °F 11.4 °F 18.0 °F 88% 29.82 in 10.0 mi South 8.1 mph - N/A   Clear
2:53 AM 21.9 °F 9.8 °F 18.0 °F 85% 29.78 in 10.0 mi South 12.7 mph - N/A   Clear
3:53 AM 24.1 °F 12.5 °F 18.0 °F 77% 29.72 in 10.0 mi South 12.7 mph - N/A   Clear
4:53 AM 21.9 °F 9.8 °F 17.1 °F 82% 29.68 in 10.0 mi South 12.7 mph - N/A   Clear
5:53 AM 19.9 °F 11.1 °F 15.1 °F 81% 29.67 in 10.0 mi South 6.9 mph - N/A   Clear
6:53 AM 25.0 °F 14.2 °F 19.9 °F 81% 29.64 in 10.0 mi South 11.5 mph - N/A   Clear
7:53 AM 26.1 °F 17.6 °F 21.0 °F 81% 29.64 in 10.0 mi South 8.1 mph - N/A   Clear
8:53 AM 30.0 °F 25.2 °F 24.1 °F 79% 29.63 in 10.0 mi SW 4.6 mph - N/A   Clear
9:53 AM 36.0 °F 28.5 °F 27.0 °F 70% 29.61 in 10.0 mi SW 10.4 mph - N/A   Clear
10:53 AM 37.0 °F 30.4 °F 28.0 °F 70% 29.59 in 10.0 mi SSW 9.2 mph - N/A   Clear
11:53 AM 37.9 °F 31.5 °F 28.0 °F 68% 29.60 in 10.0 mi West 9.2 mph - N/A   Clear
12:53 PM 37.9 °F 30.9 °F 28.9 °F 70% 29.60 in 10.0 mi West 10.4 mph - N/A   Clear
1:53 PM 39.9 °F 34.5 °F 28.0 °F 63% 29.59 in 10.0 mi West 8.1 mph - N/A   Clear
2:53 PM 39.9 °F 35.8 °F 30.0 °F 68% 29.60 in 10.0 mi WNW 5.8 mph - N/A   Clear
3:53 PM 39.9 °F 32.9 °F 30.0 °F 68% 29.62 in 10.0 mi NW 11.5 mph - N/A   Clear
4:53 PM 37.9 °F 31.5 °F 30.0 °F 73% 29.67 in 10.0 mi West 9.2 mph - N/A   Clear
5:53 PM 36.0 °F 26.7 °F 30.0 °F 79% 29.72 in 10.0 mi WNW 15.0 mph - N/A   Partly Cloudy
6:53 PM 37.0 °F 26.2 °F 30.0 °F 76% 29.76 in 10.0 mi WNW 21.9 mph - N/A   Mostly Cloudy
7:53 PM 36.0 °F 26.3 °F 32.0 °F 86% 29.79 in 10.0 mi WNW 16.1 mph - 0.00 in Rain Light Rain
8:53 PM 35.1 °F 26.9 °F 33.1 °F 92% 29.80 in 10.0 mi WNW 11.5 mph - 0.01 in Rain Light Rain
9:53 PM 36.0 °F 26.3 °F 32.0 °F 86% 29.80 in 10.0 mi WNW 16.1 mph - 0.00 in   Scattered Clouds
10:53 PM 35.1 °F 25.2 °F 30.9 °F 85% 29.81 in 10.0 mi WNW 16.1 mph - N/A   Clear
11:53 PM 34.0 °F 24.2 °F 30.0 °F 85% 29.82 in 10.0 mi NW 15.0 mph - N/A   Clear